[[{"header":{"parameterUnit":"m.s-1","parameterCategory":2,"la1":30.2992,"la2":30.254,"lo1":-89.0895,"lo2":-89.0443,"dy":0.0025,"dx":0.0025,"nx":19,"ny":19,"refTime":"2026-05-18T21:00:00:Z","depth":"0","parameterNumber":2,"parameterNumberName":"U-component_of_CURRENTS"},"data":[0,0,0,-0.4176,-0.4175,-0.4136,-0.4136,-0.3944,-0.3942,0,0,0,0,0,0,0,0,0,0,0,-0.4157,-0.4156,-0.4177,-0.4175,-0.4136,-0.4136,-0.3944,-0.3942,0,0,0,0,0,0,0,0,0,0,0,-0.4158,-0.4157,-0.4155,-0.4175,-0.4136,-0.4136,-0.3945,-0.4011,0,0,0,0,0,0,0,0,0,0,-0.4067,-0.4106,-0.4157,-0.4155,-0.4175,-0.4136,-0.4136,-0.4015,-0.4006,-0.392,0,-0.3885,0,-0.3915,-0.3925,-0.3924,0,0,0,-0.418,-0.4114,-0.4068,-0.4155,-0.4175,-0.4136,-0.4155,-0.4012,-0.4001,-0.3907,-0.3883,-0.3878,-0.3912,-0.3924,-0.3922,-0.3594,-0.3592,0,0,-0.4182,-0.4187,-0.4075,-0.406,-0.4122,-0.4156,-0.4154,-0.4007,-0.3995,-0.3882,-0.3874,-0.3909,-0.3922,-0.392,-0.3595,-0.3593,0,0,0,-0.4185,-0.4188,-0.415,-0.4066,-0.4074,-0.4155,-0.4152,-0.4002,-0.3978,-0.3873,-0.3907,-0.3921,-0.3917,-0.3597,-0.3595,-0.3504,0,0,0,-0.4187,-0.419,-0.415,-0.4159,-0.4077,-0.4068,-0.415,-0.3988,-0.3974,-0.3908,-0.392,-0.3915,-0.3599,-0.3596,-0.351,-0.3438,0,0,0,-0.4167,-0.4191,-0.4165,-0.4158,-0.414,-0.4071,-0.4043,-0.3987,-0.3993,-0.3924,-0.3914,-0.3601,-0.3597,-0.3516,-0.3449,-0.3357,0,0,0,-0.4204,-0.4077,-0.4164,-0.4035,-0.414,-0.3991,-0.4045,-0.3979,-0.3917,-0.3919,-0.3599,-0.3595,-0.3518,-0.3455,-0.3363,-0.2991,-0.293,0,0,-0.4045,-0.4059,-0.3976,-0.4052,-0.3872,-0.4,-0.3834,-0.3817,-0.3816,-0.3643,-0.3636,-0.3508,-0.345,-0.3358,-0.275,-0.2696,0,0,0,-0.3926,-0.3841,-0.3803,-0.3739,-0.3709,-0.3681,-0.3702,-0.3687,-0.3591,-0.376,-0.3448,-0.3412,-0.3359,-0.3146,-0.3102,-0.2998,-0.3576,-0.3576,-0.3576,-0.3642,-0.3648,-0.3486,-0.3466,-0.3421,-0.3451,-0.3403,-0.3378,-0.3427,-0.3378,-0.3296,-0.3099,-0.2867,-0.2831,-0.2727,-0.3263,-0.3263,-0.3262,-0.3262,-0.3301,-0.3165,-0.3247,-0.3092,-0.3142,-0.3052,-0.3067,-0.3131,-0.303,-0.3129,-0.3084,-0.3005,-0.2776,-0.2684,-0.3255,-0.3256,-0.3257,-0.3258,-0.3258,-0.3033,-0.2968,-0.2943,-0.2831,-0.2786,-0.2852,-0.2773,-0.2865,-0.2882,-0.2846,-0.2641,-0.2639,-0.2596,-0.2855,-0.2854,-0.2853,-0.2853,-0.2852,-0.2852,-0.2738,-0.2716,-0.2623,-0.2569,-0.2584,-0.2594,-0.2632,-0.2577,-0.2476,-0.2457,-0.2454,-0.2444,-0.2974,-0.3035,-0.284,-0.2842,-0.2843,-0.2844,-0.2845,-0.2292,-0.2411,-0.2272,-0.2281,-0.2297,-0.2079,-0.2245,-0.1908,-0.1944,-0.1754,-0.1815,-0.2233,-0.222,-0.2251,-0.2291,-0.1916,-0.1916,-0.1916,-0.1916,-0.2056,-0.2082,-0.1965,-0.1957,-0.1908,-0.1832,-0.1257,-0.1055,-0.1057,-0.1066,-0.1382,-0.1383,-0.1426,-0.1375,-0.1426,-0.1453,-0.0874,-0.0873,-0.0873,-0.1784,-0.1837,-0.1684,-0.1721,-0.1678,-0.1373,-0.0581,-0.0179,-0.0431,-0.0842,-0.1311,-0.1355,-0.1389,-0.1464,-0.1423,-0.1502,-0.1564,0,0]},{"header":{"parameterUnit":"m.s-1","parameterCategory":2,"la1":30.2992,"la2":30.254,"lo1":-89.0895,"lo2":-89.0443,"dy":0.0025,"dx":0.0025,"nx":19,"ny":19,"refTime":"2026-05-18T21:00:00:Z","depth":"0","parameterNumber":3,"parameterNumberName":"V-component_of_CURRENTS"},"data":[0,0,0,0.0176,0.018,0.0445,0.0446,0.0737,0.0739,0,0,0,0,0,0,0,0,0,0,0,0.0068,0.0068,0.0176,0.018,0.0444,0.0446,0.0737,0.0739,0,0,0,0,0,0,0,0,0,0,0,0.0068,0.0068,0.0068,0.0181,0.0444,0.0447,0.0737,0.0562,0,0,0,0,0,0,0,0,0,0,0.0317,0.0224,0.0068,0.0068,0.0182,0.0444,0.0447,0.0555,0.0573,0.0586,0,0.0577,0,0.0645,0.0752,0.0753,0,0,0,0.0238,0.0209,0.025,0.0068,0.0184,0.0443,0.0342,0.0566,0.0586,0.0609,0.0582,0.0594,0.065,0.0753,0.0754,0.0839,0.0839,0,0,0.0223,0.0162,0.0235,0.026,0.0187,0.0332,0.0349,0.058,0.0588,0.0583,0.0602,0.0655,0.0755,0.0756,0.084,0.0839,0,0,0,0.0142,0.0151,0.019,0.0247,0.0288,0.0339,0.0358,0.058,0.0582,0.0606,0.0658,0.0756,0.0758,0.084,0.084,0.0562,0,0,0,0.0136,0.01,0.0182,0.0156,0.0282,0.0449,0.0352,0.0566,0.0595,0.0657,0.0756,0.076,0.0841,0.084,0.0571,0.0448,0,0,0,0.0067,0.0096,0.0098,0.015,0.0238,0.0446,0.0468,0.0576,0.0624,0.0753,0.0761,0.0841,0.084,0.0578,0.0463,0.0497,0,0,0,0.0038,-0.0047,0.0096,0.0039,0.0234,0.0292,0.0468,0.0547,0.0634,0.0757,0.0841,0.084,0.0581,0.0472,0.0504,0.0902,0.0903,0,0,-0.0104,-0.0064,-0.0098,0.0034,0.0009,0.0264,0.0272,0.046,0.0629,0.0773,0.0777,0.0568,0.0464,0.0499,0.0828,0.0832,0,0,0,-0.0164,-0.0198,-0.0179,-0.0141,-0.0036,0.0063,0.0281,0.0374,0.0518,0.0669,0.062,0.0565,0.0596,0.0852,0.0854,0.1053,0.0834,0.0834,0.0834,-0.0478,-0.0382,-0.0426,-0.0311,-0.0258,-0.0067,0.0001,0.0183,0.0365,0.0383,0.0376,0.0261,0.0528,0.0535,0.073,0.0424,0.0423,0.0422,0.0421,-0.0686,-0.0674,-0.0576,-0.0575,-0.0459,-0.0412,-0.0229,-0.0113,0.0029,0.0178,0.0223,0.0591,0.0523,0.0731,0.0404,0.0407,0.041,0.0411,0.0412,-0.0828,-0.0797,-0.0782,-0.0749,-0.074,-0.0591,-0.0437,-0.0375,-0.0201,-0.0211,0.029,0.0302,0.0466,-0.0103,-0.0103,-0.0104,-0.0104,-0.0104,-0.0105,-0.0934,-0.0913,-0.0939,-0.0906,-0.0878,-0.0745,-0.055,-0.0364,-0.0106,0.0051,0.0059,0.0489,0.0105,0.0103,-0.0112,-0.011,-0.0109,-0.0109,-0.0108,-0.0988,-0.1,-0.1041,-0.1029,-0.0841,-0.046,-0.0321,0.0237,0.0294,0.0503,0.0667,0.0258,0.0423,0.0432,0.0443,0.0329,0.0329,0.0329,0.0329,-0.1034,-0.104,-0.105,-0.0963,-0.0686,-0.0295,0.0606,0.1056,0.1157,0.1162,0.0942,0.1135,0.1109,0.1321,0.1309,0.1342,0.1457,0.1458,0.1459,-0.1046,-0.1073,-0.1028,-0.0903,-0.0569,0.0145,0.1142,0.1841,0.1744,0.1504,0.1113,0.1065,0.1336,0.128,0.1613,0.158,0.1637,0,0]}],[{"header":{"parameterUnit":"m.s-1","parameterCategory":2,"la1":30.2992,"la2":30.254,"lo1":-89.0895,"lo2":-89.0443,"dy":0.0025,"dx":0.0025,"nx":19,"ny":19,"refTime":"2026-05-18T21:00:00:Z","depth":"2","parameterNumber":2,"parameterNumberName":"U-component_of_CURRENTS"},"data":[0,0,0,-0.2526,-0.2529,-0.2593,-0.2593,-0.2477,-0.2475,0,0,0,0,0,0,0,0,0,0,0,-0.2495,-0.2496,-0.2526,-0.2529,-0.2593,-0.2593,-0.2477,-0.2475,0,0,0,0,0,0,0,0,0,0,0,-0.2495,-0.2496,-0.2497,-0.2529,-0.2593,-0.2593,-0.2477,-0.2472,0,0,0,0,0,0,0,0,0,0,-0.2432,-0.2409,-0.2496,-0.2497,-0.253,-0.2593,-0.2593,-0.2474,-0.2472,-0.2398,0,-0.2427,0,-0.2459,-0.2465,-0.2465,0,0,0,-0.2504,-0.2411,-0.2466,-0.2497,-0.2531,-0.2593,-0.2557,-0.2474,-0.2472,-0.2395,-0.2426,-0.2424,-0.2457,-0.2464,-0.2463,-0.2267,-0.2266,0,0,-0.2501,-0.246,-0.2468,-0.2466,-0.2567,-0.2555,-0.2559,-0.2475,-0.2453,-0.2426,-0.2422,-0.2455,-0.2463,-0.2462,-0.2268,-0.2266,0,0,0,-0.2507,-0.2457,-0.2517,-0.2468,-0.2502,-0.2558,-0.2562,-0.2457,-0.2489,-0.2421,-0.2453,-0.2462,-0.2461,-0.2269,-0.2267,-0.231,0,0,0,-0.2504,-0.2465,-0.2516,-0.2486,-0.2506,-0.25,-0.2545,-0.2494,-0.2487,-0.2454,-0.2462,-0.2459,-0.227,-0.2268,-0.2312,-0.2345,0,0,0,-0.2489,-0.2461,-0.2485,-0.2485,-0.2531,-0.2504,-0.2529,-0.2494,-0.2506,-0.2465,-0.2459,-0.2271,-0.2268,-0.2313,-0.2345,-0.2311,0,0,0,-0.2423,-0.2428,-0.2484,-0.2467,-0.2531,-0.2524,-0.253,-0.2513,-0.2479,-0.2462,-0.227,-0.2267,-0.2313,-0.2346,-0.2312,-0.2099,-0.2078,0,0,-0.2391,-0.2422,-0.2409,-0.2462,-0.2456,-0.2513,-0.246,-0.244,-0.2406,-0.2282,-0.2279,-0.2311,-0.2345,-0.2311,-0.1957,-0.1941,0,0,0,-0.2371,-0.2378,-0.2373,-0.2389,-0.2406,-0.2434,-0.2423,-0.2403,-0.234,-0.2383,-0.2248,-0.2267,-0.2246,-0.2116,-0.2102,-0.2256,-0.2256,-0.2256,-0.2256,-0.2303,-0.2324,-0.2307,-0.2343,-0.2342,-0.2362,-0.2357,-0.2323,-0.2284,-0.2261,-0.2256,-0.2198,-0.2056,-0.2044,-0.2193,-0.2194,-0.2194,-0.2194,-0.2194,-0.2261,-0.2239,-0.229,-0.2287,-0.2328,-0.2308,-0.23,-0.23,-0.223,-0.2223,-0.2199,-0.211,-0.2032,-0.2196,-0.2196,-0.2195,-0.2195,-0.2195,-0.2195,-0.2182,-0.2177,-0.2211,-0.2236,-0.2273,-0.2298,-0.2282,-0.2293,-0.2263,-0.2254,-0.2062,-0.2058,-0.2254,-0.2223,-0.2223,-0.2223,-0.2223,-0.2223,-0.2223,-0.2075,-0.2115,-0.2106,-0.2173,-0.2184,-0.2221,-0.2267,-0.2226,-0.2131,-0.2078,-0.2075,-0.2207,-0.2206,-0.2252,-0.2222,-0.2222,-0.2222,-0.2222,-0.2222,-0.1905,-0.1962,-0.1931,-0.1942,-0.1987,-0.195,-0.207,-0.1972,-0.195,-0.1853,-0.195,-0.1956,-0.1919,-0.1925,-0.1961,-0.1859,-0.1859,-0.1858,-0.1858,-0.1777,-0.1813,-0.1736,-0.171,-0.1712,-0.1789,-0.165,-0.1632,-0.1652,-0.1613,-0.1624,-0.1572,-0.159,-0.1534,-0.155,-0.1578,-0.1376,-0.1376,-0.1376,-0.1643,-0.1656,-0.153,-0.1553,-0.1556,-0.156,-0.1406,-0.1273,-0.1203,-0.1367,-0.1645,-0.1806,-0.1757,-0.1775,-0.1711,-0.1728,-0.1782,0,0]},{"header":{"parameterUnit":"m.s-1","parameterCategory":2,"la1":30.2992,"la2":30.254,"lo1":-89.0895,"lo2":-89.0443,"dy":0.0025,"dx":0.0025,"nx":19,"ny":19,"refTime":"2026-05-18T21:00:00:Z","depth":"2","parameterNumber":3,"parameterNumberName":"V-component_of_CURRENTS"},"data":[0,0,0,-0.0621,-0.0619,-0.051,-0.051,-0.0419,-0.0419,0,0,0,0,0,0,0,0,0,0,0,-0.065,-0.065,-0.0621,-0.0618,-0.051,-0.051,-0.042,-0.0419,0,0,0,0,0,0,0,0,0,0,0,-0.0651,-0.065,-0.0649,-0.0618,-0.0511,-0.051,-0.042,-0.0487,0,0,0,0,0,0,0,0,0,0,-0.0585,-0.0635,-0.065,-0.0649,-0.0618,-0.0511,-0.051,-0.0489,-0.0483,-0.0486,0,-0.0466,0,-0.0449,-0.0415,-0.0415,0,0,0,-0.0607,-0.0641,-0.0589,-0.0649,-0.0617,-0.0511,-0.0556,-0.0485,-0.0478,-0.0477,-0.0465,-0.0461,-0.0448,-0.0415,-0.0414,-0.0291,-0.0291,0,0,-0.0613,-0.0653,-0.0594,-0.0584,-0.0586,-0.056,-0.0553,-0.048,-0.0487,-0.0464,-0.0459,-0.0446,-0.0414,-0.0414,-0.0292,-0.0291,0,0,0,-0.0638,-0.0658,-0.0607,-0.0588,-0.0569,-0.0557,-0.0549,-0.049,-0.0465,-0.0458,-0.0445,-0.0414,-0.0413,-0.0293,-0.0292,-0.0313,0,0,0,-0.0641,-0.0672,-0.0609,-0.0635,-0.0571,-0.0529,-0.0561,-0.047,-0.0461,-0.0446,-0.0414,-0.0413,-0.0294,-0.0293,-0.0314,-0.0342,0,0,0,-0.0656,-0.0675,-0.0656,-0.0637,-0.0593,-0.0529,-0.0501,-0.0467,-0.0455,-0.0415,-0.0412,-0.0295,-0.0293,-0.0316,-0.0343,-0.0299,0,0,0,-0.0709,-0.0683,-0.0657,-0.0635,-0.0594,-0.0512,-0.0501,-0.045,-0.0414,-0.0414,-0.0294,-0.0292,-0.0316,-0.0344,-0.03,-0.0241,-0.0231,0,0,-0.0702,-0.0684,-0.0669,-0.0642,-0.0579,-0.0527,-0.046,-0.0414,-0.0379,-0.0323,-0.0319,-0.0314,-0.0343,-0.0299,-0.0117,-0.0111,0,0,0,-0.0683,-0.0666,-0.0645,-0.0607,-0.0543,-0.0482,-0.042,-0.038,-0.0308,-0.0349,-0.0264,-0.0281,-0.0253,-0.0218,-0.0212,-0.0282,-0.0282,-0.0282,-0.0283,-0.0723,-0.0678,-0.0651,-0.0583,-0.0533,-0.0439,-0.0383,-0.0308,-0.0288,-0.0243,-0.026,-0.0193,-0.0153,-0.0149,-0.0206,-0.0206,-0.0206,-0.0206,-0.0206,-0.0728,-0.0718,-0.0661,-0.0622,-0.0545,-0.0484,-0.0354,-0.0313,-0.0217,-0.0216,-0.0187,-0.0196,-0.0144,-0.0207,-0.0207,-0.0207,-0.0207,-0.0207,-0.0207,-0.0773,-0.076,-0.0739,-0.0694,-0.0629,-0.0531,-0.0443,-0.0346,-0.0247,-0.0212,-0.0137,-0.0136,-0.0229,-0.0186,-0.0186,-0.0186,-0.0185,-0.0185,-0.0185,-0.0844,-0.081,-0.0825,-0.0771,-0.0751,-0.0676,-0.0502,-0.04,-0.0232,-0.015,-0.0149,-0.0185,-0.0186,-0.0225,-0.0184,-0.0184,-0.0184,-0.0184,-0.0185,-0.0883,-0.0903,-0.0917,-0.0917,-0.086,-0.079,-0.0629,-0.0362,-0.0227,-0.0125,-0.0088,-0.0091,-0.0076,-0.0079,-0.0113,-0.0046,-0.0046,-0.0046,-0.0046,-0.0941,-0.0943,-0.0982,-0.0989,-0.0957,-0.0836,-0.0642,-0.0385,-0.0152,-0.0047,-0.0048,-0.0052,-0.0056,-0.0042,-0.0046,-0.0079,-0.0004,-0.0004,-0.0004,-0.0978,-0.0989,-0.1017,-0.1021,-0.0991,-0.0869,-0.0664,-0.0336,-0.002,-0.0009,-0.0107,-0.003,-0.0036,-0.0043,-0.0021,-0.0028,-0.0081,0,0]}],[{"header":{"parameterUnit":"m.s-1","parameterCategory":2,"la1":30.2992,"la2":30.254,"lo1":-89.0895,"lo2":-89.0443,"dy":0.0025,"dx":0.0025,"nx":19,"ny":19,"refTime":"2026-05-18T21:00:00:Z","depth":"4","parameterNumber":2,"parameterNumberName":"U-component_of_CURRENTS"},"data":[0,0,0,-0.1518,-0.1522,-0.1666,-0.1666,-0.1709,-0.1709,0,0,0,0,0,0,0,0,0,0,0,-0.1471,-0.1473,-0.1518,-0.1522,-0.1666,-0.1666,-0.1709,-0.1709,0,0,0,0,0,0,0,0,0,0,0,-0.147,-0.1472,-0.1474,-0.1523,-0.1666,-0.1667,-0.1709,-0.1632,0,0,0,0,0,0,0,0,0,0,-0.1508,-0.1483,-0.1472,-0.1474,-0.1524,-0.1666,-0.1667,-0.1629,-0.1636,-0.1608,0,-0.1653,0,-0.1686,-0.171,-0.171,0,0,0,-0.1506,-0.1477,-0.1527,-0.1474,-0.1525,-0.1666,-0.1597,-0.1634,-0.1642,-0.1617,-0.1655,-0.1657,-0.1687,-0.171,-0.171,-0.1752,-0.1752,0,0,-0.1498,-0.1479,-0.1522,-0.1533,-0.159,-0.1592,-0.1601,-0.164,-0.165,-0.1655,-0.1659,-0.1687,-0.171,-0.1711,-0.1751,-0.1752,0,0,0,-0.1486,-0.1473,-0.1524,-0.153,-0.157,-0.1597,-0.1607,-0.1648,-0.167,-0.166,-0.1688,-0.1711,-0.1711,-0.1751,-0.1751,-0.1814,0,0,0,-0.1481,-0.1468,-0.1521,-0.1508,-0.1571,-0.1629,-0.1614,-0.1667,-0.1673,-0.1688,-0.1711,-0.1711,-0.1751,-0.1751,-0.1812,-0.1825,0,0,0,-0.146,-0.1464,-0.1493,-0.1507,-0.1578,-0.163,-0.1653,-0.167,-0.169,-0.171,-0.1711,-0.175,-0.1751,-0.181,-0.1822,-0.1789,0,0,0,-0.1416,-0.1464,-0.1493,-0.1548,-0.1577,-0.1653,-0.1654,-0.1705,-0.1727,-0.1711,-0.1751,-0.1751,-0.1809,-0.182,-0.1788,-0.1551,0,0,0,-0.1445,-0.1467,-0.1497,-0.1527,-0.1616,-0.163,-0.17,-0.1732,-0.1724,-0.1724,-0.1726,-0.1813,-0.1821,-0.1789,-0.16,0,0,0,0,-0.1485,-0.1519,-0.1546,-0.1612,-0.1662,-0.1721,-0.1752,-0.1764,-0.18,-0.1747,-0.1811,-0.1814,-0.1791,-0.165,-0.1755,-0.1755,-0.1755,-0.1755,-0.1755,-0.1497,-0.154,-0.1606,-0.1673,-0.1721,-0.1784,-0.1816,-0.1837,-0.1826,-0.1856,-0.1865,-0.1882,-0.1738,-0.1871,-0.1871,-0.1871,-0.1871,-0.1872,-0.1872,-0.1543,-0.1572,-0.1654,-0.1735,-0.1801,-0.186,-0.1901,-0.191,-0.1919,-0.1921,-0.1895,-0.1728,-0.1878,-0.1877,-0.1876,-0.1875,-0.1875,-0.1874,-0.1874,-0.1526,-0.1545,-0.1625,-0.1739,-0.1839,-0.1905,-0.1918,-0.1968,-0.1964,-0.1965,-0.176,-0.1899,-0.189,-0.194,-0.194,-0.194,-0.194,-0.194,-0.194,-0.1454,-0.1536,-0.1591,-0.173,-0.1782,-0.1855,-0.1926,-0.1891,-0.1913,-0.1787,-0.1965,-0.1903,-0.1901,-0.1892,-0.1939,-0.1939,-0.1939,-0.1939,-0.1939,-0.138,-0.143,-0.1483,-0.154,-0.1643,-0.1677,-0.1798,-0.1708,-0.1646,-0.1554,-0.1667,-0.168,-0.1618,-0.1623,-0.1601,-0.1564,-0.1561,-0.1558,0,-0.1293,-0.1337,-0.1351,-0.1373,-0.1388,-0.1529,-0.1402,-0.1407,-0.1431,-0.1404,-0.1613,-0.1743,-0.1751,-0.1685,-0.1684,-0.1659,0,0,0,-0.1213,-0.1235,-0.1186,-0.1244,-0.1246,-0.1253,-0.1351,-0.1281,-0.1482,-0.1337,-0.1485,-0.1504,-0.1733,-0.1936,-0.1873,-0.187,-0.1851,0,0]},{"header":{"parameterUnit":"m.s-1","parameterCategory":2,"la1":30.2992,"la2":30.254,"lo1":-89.0895,"lo2":-89.0443,"dy":0.0025,"dx":0.0025,"nx":19,"ny":19,"refTime":"2026-05-18T21:00:00:Z","depth":"4","parameterNumber":3,"parameterNumberName":"V-component_of_CURRENTS"},"data":[0,0,0,-0.0551,-0.0551,-0.0535,-0.0535,-0.0455,-0.0454,0,0,0,0,0,0,0,0,0,0,0,-0.0552,-0.0552,-0.0551,-0.0551,-0.0535,-0.0535,-0.0455,-0.0454,0,0,0,0,0,0,0,0,0,0,0,-0.0552,-0.0552,-0.0552,-0.0551,-0.0535,-0.0535,-0.0455,-0.048,0,0,0,0,0,0,0,0,0,0,-0.0501,-0.053,-0.0552,-0.0552,-0.0551,-0.0536,-0.0535,-0.0481,-0.0478,-0.0448,0,-0.045,0,-0.0454,-0.0448,-0.0448,0,0,0,-0.0542,-0.0533,-0.0516,-0.0552,-0.0551,-0.0536,-0.054,-0.048,-0.0476,-0.0443,-0.0449,-0.0446,-0.0453,-0.0447,-0.0447,-0.0311,-0.031,0,0,-0.0542,-0.0558,-0.0519,-0.0514,-0.0552,-0.054,-0.0539,-0.0478,-0.0482,-0.0449,-0.0445,-0.0452,-0.0447,-0.0446,-0.0312,-0.0311,0,0,0,-0.0551,-0.0559,-0.0545,-0.0516,-0.0521,-0.054,-0.0539,-0.0485,-0.0477,-0.0444,-0.0451,-0.0446,-0.0445,-0.0313,-0.0311,-0.0301,0,0,0,-0.0552,-0.0565,-0.0545,-0.0556,-0.0523,-0.0515,-0.0548,-0.0481,-0.0475,-0.0451,-0.0446,-0.0444,-0.0314,-0.0312,-0.0303,-0.0311,0,0,0,-0.0552,-0.0566,-0.0562,-0.0557,-0.0553,-0.0517,-0.0506,-0.048,-0.0479,-0.0448,-0.0444,-0.0314,-0.0312,-0.0305,-0.0314,-0.0269,0,0,0,-0.057,-0.0556,-0.0563,-0.0548,-0.0554,-0.0509,-0.0506,-0.0479,-0.0453,-0.0446,-0.0313,-0.0312,-0.0306,-0.0315,-0.0271,-0.0347,0,0,0,-0.0555,-0.0556,-0.0543,-0.0548,-0.0509,-0.0511,-0.0453,-0.0426,-0.0407,-0.033,-0.0327,-0.0303,-0.0314,-0.027,-0.0229,0,0,0,0,-0.0539,-0.0532,-0.052,-0.0506,-0.0479,-0.0442,-0.0418,-0.0386,-0.0321,-0.0384,-0.0265,-0.0272,-0.0245,-0.0292,-0.0302,-0.0302,-0.0302,-0.0303,-0.0303,-0.0544,-0.0522,-0.0502,-0.0469,-0.0438,-0.0387,-0.0342,-0.0287,-0.0282,-0.024,-0.0235,-0.0158,-0.0204,-0.0196,-0.0196,-0.0196,-0.0195,-0.0195,-0.0195,-0.0536,-0.0531,-0.0496,-0.0475,-0.0424,-0.0379,-0.027,-0.0246,-0.0156,-0.0173,-0.0146,-0.0243,-0.0193,-0.0194,-0.0194,-0.0194,-0.0194,-0.0195,-0.0195,-0.0561,-0.0553,-0.0548,-0.0524,-0.0469,-0.0396,-0.0317,-0.0232,-0.0155,-0.0121,-0.0155,-0.0137,-0.017,-0.0105,-0.0105,-0.0105,-0.0105,-0.0105,-0.0104,-0.0603,-0.0586,-0.0611,-0.0575,-0.0566,-0.0501,-0.0355,-0.0274,-0.0168,-0.0146,-0.012,-0.0127,-0.013,-0.0163,-0.0102,-0.0102,-0.0102,-0.0103,-0.0103,-0.0628,-0.0654,-0.068,-0.0692,-0.0656,-0.0593,-0.0465,-0.0282,-0.0199,-0.0127,-0.0142,-0.0141,-0.015,-0.0152,-0.0187,-0.013,-0.0131,-0.0132,0,-0.067,-0.0677,-0.0732,-0.0753,-0.0727,-0.0634,-0.0523,-0.0388,-0.0238,-0.0266,-0.0198,-0.0223,-0.022,-0.0241,-0.0243,-0.0289,0,0,0,-0.0698,-0.0714,-0.0755,-0.0777,-0.075,-0.0594,-0.0481,-0.0426,-0.0291,-0.018,-0.015,-0.0145,-0.0132,-0.0093,-0.0104,-0.0108,-0.0161,0,0]}]]